Wind_Speed
13 13 12 12 13 11 8 7 6 6 6 6 5 5 5 5 5 4 4 5 5 5 5 5 5 5 6 6 6 6 6 6 6 6 6 6 6 5 6 6 6 5 4 5 5 5 5 4 4
15 13 12 14 13 9 8 7 7 7 6 6 6 5 5 5 5 5 5 5 5 5 5 5 6 6 5 6 6 6 6 6 6 6 6 6 6 5 5 6 5 5 4 4 4 5 5 4 4
15 14 14 15 10 8 7 7 8 7 7 6 6 6 5 5 5 5 5 5 5 5 5 5 5 6 5 5 6 5 6 6 6 6 5 5 5 5 5 5 5 4 4 4 4 4 4 4 4
15 16 17 15 9 9 8 8 8 8 8 7 7 6 6 6 5 5 6 6 6 5 6 6 5 5 6 5 5 5 5 5 6 6 5 5 6 5 5 5 4 4 4 4 4 4 3 3 3
15 18 17 12 11 9 8 8 8 8 9 8 8 8 7 6 6 6 6 6 6 6 5 6 6 6 6 5 5 4 4 5 5 5 5 5 5 5 4 4 4 4 4 4 4 3 3 3 3
17 18 15 11 10 9 8 8 8 9 9 9 10 10 9 8 7 7 7 7 6 5 6 6 6 6 5 5 5 5 5 5 5 5 5 4 4 4 4 4 4 4 4 4 4 3 4 3 3
17 16 11 10 9 9 8 8 8 9 9 10 10 10 10 9 9 8 8 7 6 7 6 6 6 6 5 5 4 5 5 5 4 4 4 4 4 4 4 4 5 4 4 3 3 2 1 1 1
14 12 10 9 8 8 9 9 9 9 9 10 10 10 10 10 10 10 10 9 9 8 7 6 6 6 6 5 5 5 4 4 4 4 4 4 4 4 4 4 4 4 3 3 3 2 2 1 1
12 12 10 8 7 8 8 8 9 9 9 9 9 9 9 9 10 10 10 10 10 10 9 7 7 6 6 6 6 6 5 4 4 4 3 4 4 4 4 4 3 3 3 3 3 2 1 1 1
9 8 9 8 7 7 7 9 9 9 9 8 8 8 8 9 9 10 10 10 10 9 9 8 8 7 6 6 6 6 5 5 5 4 4 4 5 5 5 4 4 3 3 3 2 2 1 1 1
6 7 7 8 7 7 8 8 9 8 7 8 7 8 8 8 9 9 9 10 9 9 9 8 8 7 7 7 7 7 7 5 6 6 5 5 5 5 4 3 3 3 3 3 3 2 2 2 1
5 6 7 7 7 7 8 7 7 8 7 8 8 8 8 8 9 9 9 9 9 9 10 9 8 8 8 7 7 7 7 6 6 6 6 5 4 4 4 3 3 3 2 3 3 2 2 2 2
4 4 6 7 6 7 8 7 7 8 7 8 8 8 8 8 8 8 8 8 8 9 9 9 9 8 8 8 8 7 6 6 5 5 5 4 3 3 3 4 3 3 3 2 2 3 2 2 2
3 3 5 7 7 6 6 6 7 7 8 8 7 8 8 8 8 8 8 8 8 8 9 9 8 7 7 7 6 6 6 5 5 5 5 4 3 3 3 3 2 3 3 2 1 2 2 2 2
2 3 6 8 7 6 6 6 6 6 6 7 6 7 8 8 8 7 7 7 7 8 8 8 7 7 7 6 6 6 6 5 5 4 4 4 4 4 3 3 3 2 2 2 2 3 3 3 2
1 2 5 6 8 8 7 7 7 7 7 6 6 6 7 7 7 7 7 7 7 7 7 7 7 7 7 6 6 6 6 5 5 4 4 4 4 4 3 3 3 3 3 3 2 3 4 4 3
1 3 4 6 7 7 8 8 10 8 6 5 5 5 5 6 6 6 6 6 7 7 7 7 7 6 6 6 6 6 6 5 5 4 4 4 4 4 4 3 3 3 3 3 3 3 4 4 4
3 3 5 7 7 7 8 8 10 9 8 6 5 5 5 5 6 5 6 5 6 6 6 6 6 6 6 6 6 6 6 5 5 4 4 4 4 4 4 4 4 4 3 4 4 4 4 4 4
7 6 7 7 8 8 9 8 9 10 9 8 6 6 7 6 6 5 5 5 5 5 6 6 6 6 6 6 6 6 6 6 6 5 5 5 5 5 5 5 5 5 5 5 5 5 5 6 6
10 9 8 9 9 9 10 9 9 9 10 9 8 8 8 8 8 7 6 5 5 5 5 6 6 6 6 6 7 7 7 7 7 7 6 6 6 5 5 5 5 5 5 5 6 6 6 7 7
11 10 10 11 11 10 10 11 11 10 10 10 10 10 9 9 9 8 7 6 6 6 6 6 7 7 7 7 8 8 8 8 7 7 6 6 6 6 6 6 7 7 6 6 7 7 7 8 8
12 12 12 11 11 12 11 13 13 12 12 11 11 12 10 11 11 10 9 8 8 7 7 7 8 8 8 8 9 9 8 8 8 7 7 7 7 7 7 7 8 8 8 8 8 9 9 9 10
14 13 13 13 14 13 11 14 14 14 12 12 13 12 11 12 12 11 10 10 9 8 8 8 9 9 10 10 10 10 9 9 9 9 9 9 9 9 9 9 9 9 9 10 10 10 11 11 11
15 13 12 13 14 16 14 15 17 15 15 15 16 14 13 13 13 12 11 12 11 10 9 10 10 10 11 11 11 11 11 11 11 10 10 10 10 10 10 10 10 10 10 11 11 11 12 13 13
16 14 13 14 15 16 13 14 19 17 15 17 18 15 14 13 13 13 13 14 13 12 11 11 11 11 12 12 12 12 12 12 12 12 11 11 11 11 12 12 12 12 12 12 12 12 13 14 14
18 17 17 16 16 18 14 16 19 17 15 16 16 15 15 15 15 14 15 15 15 15 14 13 12 13 13 13 12 12 13 13 13 13 13 13 13 13 14 14 14 15 14 14 14 14 14 14 15
20 19 19 19 18 19 16 15 18 18 18 18 18 18 17 17 17 16 17 17 16 16 16 14 13 14 14 14 14 14 14 14 15 15 15 15 14 15 16 16 16 17 17 16 16 15 15 15 16
21 21 19 20 20 20 17 16 17 19 20 20 17 18 18 19 20 19 18 19 18 17 16 15 14 15 16 15 15 16 16 15 15 16 17 17 17 17 17 17 18 18 18 17 16 16 16 16 16
21 21 20 20 21 20 20 20 20 21 20 20 20 19 19 20 21 20 19 19 18 17 17 16 16 16 17 17 17 17 18 17 17 18 19 19 19 19 19 18 19 19 19 19 18 18 18 18 18
22 21 21 22 23 22 22 23 23 21 19 19 20 21 19 19 18 19 19 19 19 18 17 17 18 18 18 18 18 18 18 18 19 19 19 20 20 20 19 19 20 21 21 21 20 20 20 20 20
Wind_Direction
71 72 73 73 63 58 51 52 51 48 43 41 41 43 48 41 43 52 58 65 67 72 78 92 105 114 118 120 118 124 127 128 133 133 130 127 131 132 129 126 123 121 121 120 119 123 122 125 125
70 72 71 67 57 45 42 42 48 47 39 40 41 41 42 45 50 58 71 69 70 71 82 93 104 113 116 114 118 122 125 125 129 130 126 120 122 126 122 121 120 116 118 115 118 120 124 115 115
70 69 66 60 52 45 41 42 47 43 39 39 39 40 42 52 56 62 64 67 72 74 84 92 102 109 114 115 115 119 127 129 129 128 125 122 123 125 125 124 126 120 114 116 126 126 135 123 123
71 66 61 57 46 43 41 46 48 43 40 41 38 42 46 54 55 59 62 69 71 74 80 86 98 105 108 106 112 114 123 130 132 133 131 125 127 128 128 124 129 128 120 122 118 111 130 133 121
71 66 62 50 38 41 44 47 47 43 39 44 48 49 51 52 56 57 63 69 74 78 86 89 91 96 92 94 102 114 122 128 130 130 129 128 125 128 132 131 127 123 113 114 118 121 118 125 103
71 63 58 45 33 36 44 45 44 42 42 41 46 50 51 57 56 56 60 61 69 81 92 87 92 94 91 95 106 117 124 128 127 135 135 132 127 122 126 128 122 116 107 101 100 104 110 87 75
70 71 63 49 35 38 40 44 41 43 44 44 48 52 54 58 58 60 60 61 71 83 91 88 86 86 87 92 99 106 108 117 111 122 119 116 118 120 118 116 118 113 107 96 98 109 107 71 55
76 72 62 50 39 37 37 40 38 38 43 43 49 53 54 54 56 58 58 65 76 80 87 86 83 85 85 85 91 99 100 102 102 111 112 110 109 120 116 108 112 115 109 97 100 100 88 53 10
73 67 55 51 40 39 35 35 39 38 41 46 48 50 53 56 57 58 60 66 72 72 75 77 76 76 73 77 81 87 87 92 94 96 99 101 106 107 102 102 106 106 102 91 90 88 84 55 50
71 59 52 43 39 45 39 33 36 33 38 46 49 49 48 54 57 60 62 64 63 61 60 64 65 66 62 57 59 66 79 84 85 83 88 91 97 90 85 86 93 99 98 93 92 78 61 48 43
60 47 47 36 31 40 46 38 36 33 35 41 43 49 51 50 53 58 60 61 60 55 53 55 60 58 55 56 55 54 66 76 83 85 90 88 89 88 84 82 79 92 87 89 91 82 68 59 59
47 30 23 27 18 29 41 33 39 33 30 40 40 46 51 49 49 51 53 54 56 53 50 50 53 52 54 55 52 51 59 66 67 75 86 89 87 85 87 73 70 74 75 75 67 66 62 48 44
57 26 17 18 23 30 33 34 34 29 26 30 36 39 46 48 46 48 50 51 53 54 52 49 51 51 49 50 50 49 53 50 51 59 67 77 74 71 66 56 68 73 67 61 68 61 55 39 33
78 34 19 19 15 21 25 24 15 13 18 23 31 35 40 40 41 45 47 49 48 47 48 46 45 46 44 44 44 41 46 45 40 48 50 55 53 47 39 41 52 62 54 47 43 40 33 17 25
120 13 359 1 3 9 15 9 6 4 7 13 18 26 35 39 39 41 45 45 41 38 37 40 42 40 36 33 32 33 38 39 35 37 37 34 34 28 23 17 15 18 17 19 18 24 23 13 16
143 338 326 334 345 347 1 360 343 343 353 359 1 13 23 28 31 33 36 36 33 29 26 31 36 33 31 28 24 24 30 33 25 17 12 18 20 11 6 358 9 13 7 5 7 8 8 3 1
259 258 287 312 319 327 332 333 323 341 345 347 354 0 4 13 16 17 20 23 26 24 22 22 25 24 22 18 15 13 13 12 7 7 4 3 0 359 0 359 3 357 350 349 346 344 346 350 347
238 262 286 294 297 313 312 320 323 336 337 334 342 344 343 352 355 358 3 7 13 16 16 14 13 14 13 10 8 4 359 354 350 352 351 353 355 359 4 357 352 348 338 324 317 323 324 329 330
227 226 243 264 280 289 294 306 312 318 322 323 328 327 325 331 335 340 345 349 355 359 1 1 0 360 1 1 357 352 348 346 343 342 340 343 343 341 343 341 338 333 326 322 317 313 314 317 319
229 234 249 259 273 282 290 289 291 297 310 313 314 311 309 313 315 324 329 331 332 336 342 346 349 348 347 343 341 341 341 339 336 335 333 331 326 323 318 320 324 322 319 315 314 313 309 311 312
239 242 249 255 264 269 277 281 276 282 291 299 300 301 299 301 305 301 306 313 315 318 323 330 335 335 334 333 334 333 331 330 331 329 324 322 320 315 313 310 313 314 315 314 309 307 305 303 302
247 247 251 259 263 267 272 280 285 288 293 290 295 296 293 293 295 296 298 301 306 308 312 318 321 324 325 324 324 325 324 325 326 327 325 320 317 314 308 307 308 309 311 310 308 306 304 303 301
241 247 253 257 260 266 269 273 277 282 284 293 292 288 288 286 287 290 294 294 301 299 301 307 312 315 316 318 317 318 317 318 320 320 318 316 315 315 313 307 304 304 305 306 304 303 302 302 301
243 250 259 259 261 261 260 264 271 268 279 288 289 284 283 280 280 279 284 291 293 293 295 298 303 307 311 314 313 311 310 311 313 312 311 311 312 312 312 308 304 303 305 305 304 301 301 301 300
247 249 255 261 261 266 262 260 266 264 269 278 280 281 280 277 276 277 278 284 289 291 292 293 296 300 305 310 309 307 305 305 305 305 305 308 309 310 311 310 308 305 304 304 303 300 300 301 300
243 240 244 254 263 273 274 267 270 275 269 272 273 274 274 271 271 275 278 281 286 289 290 288 290 293 297 302 304 303 303 301 299 300 303 304 304 306 309 309 308 307 304 299 301 299 301 301 298
239 240 243 249 258 268 268 266 271 269 272 271 271 271 271 272 272 276 279 279 280 283 284 282 283 286 288 292 296 298 300 300 297 295 297 300 301 304 305 307 307 308 309 304 301 301 303 304 301
243 238 241 245 253 260 263 259 258 261 269 271 269 270 273 275 275 275 274 275 277 277 277 278 279 281 283 287 291 293 294 295 295 294 293 297 300 303 303 303 305 306 306 304 304 306 305 303 303
244 239 241 245 247 253 261 264 264 260 263 268 266 266 270 273 274 274 271 271 271 272 274 275 276 277 280 283 287 291 290 293 294 293 294 294 296 299 301 301 303 303 304 303 303 304 306 304 301
242 239 240 247 250 249 256 264 265 267 263 265 267 267 268 269 270 271 271 270 272 272 273 274 275 276 278 282 286 287 290 292 294 294 293 294 295 297 299 299 301 302 302 300 300 301 303 301 299
Height
5892 5892 5891 5891 5891 5891 5891 5891 5890 5889 5888 5887 5886 5885 5884 5884 5885 5886 5883 5881 5882 5881 5881 5881 5881 5882 5882 5883 5883 5884 5884 5885 5885 5885 5886 5886 5887 5887 5888 5888 5889 5890 5890 5891 5892 5892 5893 5893 5894
5895 5895 5894 5894 5893 5894 5894 5893 5892 5891 5890 5888 5887 5887 5886 5885 5885 5884 5883 5883 5883 5883 5882 5882 5883 5883 5884 5884 5884 5885 5885 5886 5886 5887 5887 5888 5888 5889 5889 5890 5890 5891 5892 5892 5893 5893 5894 5894 5894
5897 5897 5897 5896 5897 5897 5896 5895 5894 5893 5891 5890 5889 5888 5887 5886 5886 5885 5885 5884 5884 5884 5884 5884 5884 5884 5885 5885 5886 5886 5886 5887 5887 5888 5888 5888 5889 5890 5890 5891 5891 5892 5892 5893 5893 5894 5894 5895 5895
5900 5899 5899 5900 5900 5899 5898 5897 5896 5895 5893 5892 5891 5890 5888 5887 5887 5887 5886 5885 5885 5885 5885 5885 5885 5886 5886 5886 5886 5887 5887 5888 5888 5888 5889 5889 5890 5891 5891 5892 5892 5893 5893 5894 5894 5894 5895 5895 5896
5901 5902 5903 5903 5902 5902 5900 5899 5898 5897 5895 5894 5893 5891 5890 5889 5889 5888 5887 5887 5886 5886 5886 5886 5887 5887 5887 5887 5887 5887 5888 5888 5889 5889 5890 5891 5891 5891 5892 5893 5893 5893 5894 5894 5895 5895 5895 5896 5896
5903 5904 5907 5906 5905 5904 5903 5902 5900 5899 5898 5896 5894 5893 5892 5891 5890 5889 5889 5888 5887 5887 5888 5888 5888 5889 5889 5888 5888 5888 5889 5889 5890 5891 5891 5892 5892 5892 5893 5893 5894 5894 5895 5895 5895 5895 5896 5896 5897
5906 5907 5909 5909 5908 5907 5906 5904 5903 5901 5900 5898 5897 5896 5894 5893 5893 5891 5890 5888 5888 5888 5890 5890 5890 5890 5890 5890 5890 5890 5890 5891 5892 5892 5892 5893 5893 5893 5894 5894 5895 5895 5896 5896 5896 5897 5897 5897 5897
5910 5911 5911 5911 5911 5910 5908 5906 5905 5903 5902 5901 5900 5898 5897 5896 5895 5894 5892 5890 5890 5890 5891 5892 5892 5891 5892 5892 5892 5892 5892 5892 5893 5893 5893 5894 5894 5894 5895 5895 5896 5896 5897 5897 5897 5898 5898 5898 5898
5913 5915 5913 5914 5913 5912 5910 5908 5907 5905 5904 5903 5902 5901 5900 5899 5897 5897 5896 5894 5893 5893 5894 5894 5894 5894 5894 5893 5893 5893 5894 5894 5894 5894 5895 5895 5895 5895 5896 5897 5897 5897 5898 5898 5898 5899 5899 5898 5899
5917 5916 5916 5915 5915 5913 5912 5911 5909 5908 5907 5906 5905 5904 5902 5901 5900 5899 5898 5898 5897 5897 5896 5896 5896 5896 5896 5895 5895 5895 5895 5895 5895 5895 5896 5896 5896 5897 5897 5897 5898 5898 5898 5899 5899 5899 5899 5899 5899
5919 5918 5918 5917 5916 5915 5913 5912 5911 5910 5909 5908 5907 5906 5905 5903 5902 5902 5901 5900 5900 5899 5899 5898 5898 5898 5898 5897 5897 5897 5897 5896 5897 5897 5897 5897 5897 5898 5898 5898 5899 5899 5899 5899 5900 5900 5900 5900 5900
5920 5920 5919 5919 5917 5916 5915 5914 5913 5912 5911 5909 5908 5908 5907 5906 5904 5904 5903 5902 5902 5902 5901 5901 5900 5900 5900 5899 5899 5899 5899 5898 5898 5898 5898 5899 5899 5899 5899 5899 5899 5900 5900 5900 5900 5901 5901 5900 5900
5921 5921 5921 5920 5919 5918 5917 5915 5914 5913 5912 5911 5910 5909 5908 5907 5906 5906 5905 5905 5904 5904 5904 5903 5902 5902 5902 5901 5901 5901 5900 5900 5900 5900 5900 5900 5900 5900 5900 5900 5900 5900 5901 5901 5901 5901 5901 5901 5901
5922 5921 5921 5921 5921 5919 5918 5917 5916 5915 5914 5913 5912 5911 5910 5909 5908 5907 5907 5907 5906 5906 5905 5905 5904 5904 5904 5903 5903 5903 5902 5902 5902 5901 5901 5901 5901 5901 5901 5902 5901 5902 5901 5901 5901 5901 5901 5902 5901
5922 5922 5922 5922 5921 5920 5920 5918 5916 5916 5915 5914 5913 5912 5912 5911 5910 5909 5909 5908 5908 5908 5907 5907 5906 5906 5906 5905 5905 5904 5904 5903 5903 5903 5902 5902 5902 5902 5902 5903 5902 5902 5902 5902 5902 5902 5902 5902 5902
5921 5922 5923 5923 5923 5921 5922 5920 5918 5917 5916 5915 5914 5914 5913 5912 5912 5911 5910 5910 5909 5909 5908 5908 5908 5907 5907 5907 5906 5906 5905 5905 5904 5904 5903 5903 5903 5903 5903 5903 5903 5903 5903 5902 5902 5902 5902 5902 5902
5921 5922 5923 5924 5924 5923 5922 5920 5918 5917 5917 5916 5915 5915 5914 5914 5913 5912 5912 5911 5911 5910 5910 5909 5909 5909 5908 5908 5907 5906 5906 5905 5905 5905 5905 5904 5904 5904 5903 5903 5903 5903 5903 5903 5902 5902 5902 5902 5902
5923 5923 5924 5924 5923 5923 5922 5921 5919 5918 5917 5916 5916 5915 5915 5914 5914 5913 5913 5912 5912 5911 5911 5910 5910 5909 5909 5908 5908 5908 5907 5906 5906 5905 5905 5905 5904 5904 5904 5904 5903 5903 5903 5903 5902 5902 5902 5901 5901
5922 5923 5923 5924 5923 5923 5922 5921 5919 5918 5918 5916 5916 5916 5915 5914 5914 5913 5913 5912 5912 5912 5911 5911 5911 5910 5910 5909 5909 5908 5908 5907 5906 5906 5905 5905 5905 5904 5904 5904 5903 5903 5903 5902 5902 5902 5901 5901 5900
5920 5921 5921 5922 5922 5921 5921 5920 5919 5918 5917 5916 5916 5915 5915 5914 5913 5913 5912 5912 5912 5912 5912 5911 5911 5911 5910 5910 5909 5909 5908 5907 5906 5906 5905 5904 5904 5904 5904 5903 5903 5903 5902 5902 5901 5901 5900 5900 5899
5917 5919 5920 5921 5921 5920 5920 5919 5917 5917 5916 5916 5915 5914 5913 5913 5912 5912 5911 5912 5912 5912 5911 5911 5911 5911 5910 5910 5909 5908 5908 5907 5906 5905 5904 5904 5903 5903 5903 5902 5902 5902 5901 5901 5900 5900 5899 5899 5898
5915 5917 5918 5918 5918 5918 5918 5917 5915 5915 5914 5914 5914 5913 5912 5912 5911 5911 5911 5911 5911 5911 5911 5911 5910 5910 5910 5909 5909 5908 5907 5906 5905 5905 5904 5903 5902 5902 5902 5901 5901 5900 5900 5899 5899 5898 5898 5897 5897
5912 5914 5914 5915 5915 5915 5915 5915 5914 5913 5911 5911 5912 5911 5909 5910 5910 5910 5909 5909 5909 5910 5910 5910 5909 5909 5909 5908 5908 5907 5906 5905 5905 5904 5903 5902 5901 5901 5900 5899 5899 5899 5898 5898 5897 5896 5896 5895 5894
5909 5911 5911 5912 5912 5912 5913 5913 5911 5910 5910 5909 5910 5909 5909 5909 5908 5908 5908 5908 5907 5907 5908 5908 5908 5908 5907 5907 5906 5906 5905 5904 5903 5902 5901 5901 5900 5899 5898 5898 5897 5897 5896 5895 5895 5894 5893 5892 5892
5906 5908 5909 5909 5908 5908 5909 5909 5908 5907 5908 5908 5907 5906 5906 5906 5906 5906 5906 5906 5905 5905 5906 5906 5906 5906 5906 5905 5905 5904 5903 5902 5901 5900 5900 5899 5898 5897 5897 5896 5895 5894 5894 5893 5892 5891 5890 5889 5888
5902 5905 5906 5907 5907 5905 5905 5905 5905 5904 5904 5903 5903 5903 5903 5904 5903 5903 5903 5904 5903 5903 5904 5904 5904 5904 5904 5903 5902 5902 5901 5900 5899 5898 5897 5896 5896 5895 5895 5893 5893 5892 5890 5889 5889 5888 5887 5886 5885
5898 5900 5902 5903 5903 5904 5903 5902 5902 5900 5900 5900 5901 5900 5900 5900 5901 5900 5900 5900 5901 5901 5901 5901 5901 5901 5900 5900 5900 5899 5899 5898 5897 5896 5895 5894 5893 5893 5892 5891 5890 5889 5887 5886 5885 5885 5884 5882 5881
5893 5895 5897 5898 5898 5898 5900 5899 5898 5897 5898 5897 5897 5897 5897 5897 5897 5897 5897 5897 5897 5897 5897 5897 5898 5897 5897 5897 5896 5896 5896 5895 5894 5893 5892 5891 5890 5889 5888 5888 5887 5885 5884 5883 5882 5881 5880 5879 5877
5887 5890 5891 5893 5895 5896 5896 5898 5894 5892 5892 5893 5892 5893 5893 5893 5893 5893 5893 5893 5892 5893 5893 5894 5894 5894 5893 5893 5893 5893 5892 5891 5890 5889 5888 5888 5887 5886 5885 5884 5883 5881 5880 5879 5878 5877 5876 5874 5873
5881 5884 5886 5888 5889 5890 5891 5893 5889 5887 5887 5886 5887 5888 5888 5889 5889 5889 5889 5889 5889 5889 5889 5889 5889 5889 5889 5889 5888 5888 5887 5887 5886 5885 5885 5884 5883 5882 5881 5880 5879 5877 5876 5874 5873 5872 5871 5870 5868